Temp_Advection
nan nan nan nan nan nan nan nan nan nan nan nan nan nan nan nan nan nan nan nan nan nan nan nan nan nan nan nan nan nan nan nan nan nan nan nan nan nan nan nan nan nan nan
nan 0 -0 -0 0 0 0 0 -0 -0 -0 -0 0 0 0 0 0 0 -0 -0 -0 -0 -0 -0 0 0 0 0 -0 0 0 0 0 0 0 0 0 0 0 0 0 0 nan
nan -0 -0 -0 -0 0 0 -0 -0 -0 -0 0 0 0 0 0 -0 -0 -0 -0 -0 -0 -0 0 0 0 0 0 0 0 0 0 0 1 0 0 0 0 0 0 0 0 nan
nan -0 -0 -0 0 0 -0 -0 -0 -0 -0 -0 0 -0 0 -0 -0 -0 -0 -0 -0 -0 -0 -0 -0 -0 -0 0 0 0 0 0 0 0 0 0 0 0 0 0 0 0 nan
nan -0 -0 0 0 0 0 0 -0 -0 -0 -0 -0 -0 0 0 -0 -0 -0 -0 -0 -0 -0 -0 -0 -0 -0 -0 -0 -0 0 0 0 0 0 0 0 0 0 0 0 0 nan
nan -0 0 0 0 0 0 0 0 -0 -0 -0 -0 -0 0 0 -0 -0 -0 -0 -0 -0 -0 -0 -0 -0 -0 -0 -0 -0 -0 -0 -0 0 0 0 0 0 0 0 0 0 nan
nan 0 0 0 1 0 0 0 -0 -0 0 0 0 0 0 -0 -0 -0 -0 -0 -0 -0 -0 -0 0 -0 -0 -0 -0 -0 -0 -0 -0 -0 0 0 0 0 0 0 0 0 nan
nan 0 0 0 1 0 0 0 0 0 0 0 0 0 0 0 -0 -0 -0 -0 -0 -0 -0 -0 -0 -0 -0 -0 -0 -0 -0 -0 -0 -0 -0 0 0 0 0 0 0 0 nan
nan 0 0 1 1 0 0 0 0 0 0 0 0 0 0 0 0 -0 -0 -0 -0 -0 0 -0 -0 -0 -0 -0 -0 -0 -0 -0 -0 -0 -0 -0 -0 0 0 0 0 0 nan
nan 1 0 0 0 1 0 0 0 0 0 0 0 0 0 0 0 0 0 -0 -0 -0 -0 -0 -0 -0 -0 -0 -0 -0 0 -0 -0 0 -0 -0 -0 -0 0 0 -0 0 nan
nan 0 0 0 0 0 0 0 0 0 0 0 0 0 0 0 0 0 0 -0 -0 -0 -0 -0 -0 0 0 -0 -0 -0 0 0 -0 -0 0 -0 -0 -0 -0 0 0 0 nan
nan -0 0 0 0 0 0 0 0 0 0 0 0 0 0 0 0 0 0 0 0 -0 -0 -0 -0 0 0 0 0 0 -0 -0 -0 0 0 0 -0 -0 -0 -0 0 0 nan
nan 0 0 0 0 0 0 0 0 0 0 0 0 0 0 0 0 0 0 0 0 0 -0 0 0 -0 -0 -0 -0 0 -0 -0 -0 0 -0 -0 -0 -0 -0 -0 -0 -0 nan
nan 0 0 0 -0 0 0 0 0 0 1 0 0 0 0 0 0 0 0 0 0 0 0 0 0 -0 -0 -0 -0 -0 -0 -0 0 0 -0 -0 0 0 -0 -0 -0 -0 nan
nan 0 0 0 -0 -0 0 0 0 0 0 0 0 0 0 0 0 0 0 0 0 0 0 0 -0 -0 -0 -0 -0 -0 -0 -0 -0 -0 -0 -0 0 0 0 0 -0 -0 nan
nan 0 0 0 -0 -0 -0 -0 0 0 0 0 0 0 0 0 0 0 0 0 0 0 0 0 0 -0 -0 -0 -0 0 0 0 -0 -0 -0 -0 -0 -0 -0 -0 -0 -0 nan
nan 0 0 0 0 -0 -0 -0 -0 -0 -0 -0 -0 -0 0 0 0 0 0 0 0 0 0 0 0 -0 -0 -0 -0 -0 -0 0 -0 -0 -0 0 -0 -0 -0 -0 -0 -0 nan
nan 0 0 -0 -0 -0 -0 -0 -0 -0 0 0 -0 -0 -0 -0 -0 -0 0 0 -0 -0 -0 -0 0 -0 -0 -0 -0 -0 -0 -0 0 -0 -0 0 0 -0 -0 -0 -0 -0 nan
nan 0 -0 -0 -0 -0 -0 -0 -0 -0 0 0 0 -0 -0 -0 -0 -0 -0 -0 -0 0 -0 0 0 0 -0 -0 -0 -0 -0 -0 0 0 -0 -0 -0 -0 -0 -0 -0 -0 nan
nan -0 -0 -0 -0 -0 -0 -0 -0 0 -0 -0 -0 -0 -0 -0 -0 -0 -0 -0 -0 0 0 -0 0 0 0 0 0 0 0 0 0 0 0 0 0 -0 -0 -0 -0 -0 nan
nan -0 -0 -0 -0 -0 -0 -0 -0 -0 0 -0 -0 -0 -0 -0 -0 -0 -0 -0 -0 -0 0 -0 0 0 0 0 0 0 0 0 0 0 0 -0 -0 -0 0 0 0 0 nan
nan -0 -0 -0 -0 -0 0 0 0 0 -0 -0 0 0 0 -0 -0 0 0 0 0 0 0 0 0 -0 -0 0 0 -0 0 0 0 0 0 0 -0 -0 -0 0 0 0 nan
nan -0 0 0 0 0 0 0 0 -0 0 0 0 0 0 0 0 0 0 -0 0 0 0 0 0 0 0 0 0 0 0 0 0 0 0 0 0 0 0 0 0 0 nan
nan 0 0 0 0 0 0 0 0 0 -0 -0 0 0 0 0 0 0 0 0 0 0 0 0 0 0 0 0 0 0 0 0 0 0 0 0 -0 -0 0 0 0 0 nan
nan 0 0 0 0 0 0 0 0 0 0 -0 0 0 0 0 0 0 0 0 0 0 0 0 0 0 0 0 0 0 0 0 -0 0 0 0 -0 0 0 -0 -0 0 nan
nan nan nan nan nan nan nan nan nan nan nan nan nan nan nan nan nan nan nan nan nan nan nan nan nan nan nan nan nan nan nan nan nan nan nan nan nan nan nan nan nan nan nan
Wind_Speed
6 9 7 5 5 4 6 6 5 9 11 10 10 10 9 8 8 7 7 7 5 5 5 4 4 3 4 6 8 10 7 10 10 7 8 7 6 4 4 4 4 5 5
7 9 9 4 2 4 5 7 8 10 10 10 10 11 10 8 8 8 9 8 8 8 8 4 2 2 2 3 5 9 8 7 10 12 12 11 7 6 5 6 6 6 4
13 10 10 6 1 3 3 7 9 8 8 9 10 10 11 11 11 11 10 10 10 10 9 8 8 6 3 1 3 5 7 7 8 11 15 12 10 9 9 8 5 3 3
16 13 11 5 4 2 1 4 6 6 5 7 9 9 10 11 12 12 12 12 11 11 11 10 9 7 7 6 5 5 4 4 6 9 12 10 11 11 8 5 4 3 2
15 15 8 10 10 9 3 2 2 3 3 4 6 6 7 7 11 10 10 10 10 11 11 10 10 10 10 9 8 8 8 7 6 10 10 11 12 10 6 5 5 4 3
17 13 12 12 12 9 3 2 1 1 1 1 3 3 4 6 9 10 10 9 10 10 10 12 12 11 11 9 8 7 7 7 6 8 9 8 8 6 5 6 6 4 3
15 16 15 13 12 11 4 2 2 2 3 2 1 2 1 3 7 9 10 9 9 9 10 11 11 12 11 11 10 8 7 6 5 6 6 6 6 5 4 8 6 4 2
19 15 17 16 16 13 7 7 6 4 5 3 3 4 3 2 4 6 7 8 6 5 6 6 8 9 10 11 10 9 9 9 9 8 5 5 4 4 6 6 7 7 8
16 15 14 15 16 15 12 10 11 8 5 3 3 6 6 4 2 2 4 7 6 3 4 4 4 5 6 8 8 7 7 9 10 8 7 7 5 1 3 5 4 5 5
16 13 9 9 10 13 12 8 13 6 6 5 4 4 7 7 5 3 2 3 6 6 5 2 1 2 3 4 5 6 4 8 9 6 7 6 7 11 4 4 4 5 8
11 8 8 6 6 8 12 12 13 5 7 6 7 5 7 8 8 6 6 3 2 3 6 5 2 2 2 2 2 2 3 4 4 2 1 2 6 12 8 1 5 3 6
9 7 6 6 6 11 11 13 10 8 8 9 8 9 8 8 9 8 7 4 3 3 5 7 2 2 0 1 2 2 4 3 4 4 3 2 6 7 4 7 8 6 3
8 7 7 7 8 11 12 11 10 8 10 14 9 6 7 8 8 9 9 7 6 7 7 2 2 2 3 4 2 0 3 3 1 3 2 2 5 5 4 2 1 2 3
8 8 8 7 8 10 10 11 10 13 14 10 8 7 6 5 6 6 5 5 4 3 3 4 7 7 6 5 7 8 5 2 1 1 1 3 3 3 4 5 3 3 2
9 9 9 9 9 11 11 10 10 10 9 8 8 6 5 5 5 5 4 4 4 6 7 7 5 3 0 0 2 3 4 5 6 7 8 7 6 5 5 6 6 4 2
12 13 12 12 12 10 8 7 7 6 5 5 4 3 3 4 5 4 3 4 7 9 7 3 2 1 2 1 2 2 4 6 6 8 11 12 11 10 10 8 6 7 5
15 18 18 18 17 16 17 16 12 8 6 5 4 2 1 1 2 2 4 5 8 6 5 3 4 1 4 8 12 11 9 8 10 12 13 10 11 10 9 7 6 7 9
19 18 17 17 15 14 14 15 14 16 16 17 13 9 5 4 3 3 4 7 8 7 4 5 2 2 8 10 11 9 10 12 15 13 11 11 11 12 8 8 9 8 7
14 14 15 13 13 11 11 12 13 13 13 15 18 17 11 9 6 5 5 11 6 5 3 2 1 3 6 10 10 10 10 12 14 11 10 10 12 9 10 8 11 9 8
15 13 12 14 11 9 9 8 8 9 10 10 11 13 12 7 9 11 10 7 5 3 1 3 6 6 9 12 11 9 10 12 14 11 9 9 8 7 9 11 12 12 12
11 14 15 11 8 7 4 2 2 2 1 3 3 4 6 7 4 4 4 5 4 4 3 4 9 10 10 12 13 15 15 11 14 13 13 10 10 10 11 12 13 13 13
20 14 15 15 10 4 5 2 5 10 10 8 5 2 2 3 4 0 1 2 5 5 8 8 10 12 13 11 13 14 12 12 14 14 14 12 14 14 14 15 15 15 16
16 12 14 14 11 5 3 2 5 1 1 1 3 6 6 3 1 1 2 5 8 9 10 5 9 8 8 9 9 12 13 14 13 13 15 17 18 16 18 18 18 19 21
15 15 15 14 11 7 6 5 4 1 2 4 2 5 4 5 8 8 8 8 11 10 9 10 12 14 15 15 16 17 19 20 19 17 19 20 20 22 22 21 21 21 23
15 19 17 13 10 8 7 8 9 6 2 1 8 6 3 3 3 6 6 6 8 11 14 15 14 15 17 18 21 19 19 21 23 27 29 26 28 28 26 25 25 24 23
9 8 7 9 11 11 11 10 4 2 2 6 5 3 4 5 4 4 5 6 8 9 10 12 13 14 16 17 19 21 23 24 24 25 26 28 28 26 30 31 31 32 31
Wind_Direction
171 159 153 127 41 19 16 39 38 47 64 52 37 39 51 54 63 70 86 84 79 87 107 103 121 152 203 220 223 229 224 228 217 192 212 203 234 253 242 231 208 188 175
201 180 164 162 40 14 31 43 63 61 54 64 46 46 52 66 73 74 80 82 80 85 76 71 97 146 168 193 218 225 227 222 228 213 205 193 208 216 211 192 191 198 200
190 196 177 171 132 24 52 53 54 65 56 57 55 53 52 66 72 69 68 72 71 71 71 69 70 73 90 161 213 222 225 217 208 210 194 205 202 191 193 181 171 171 167
190 200 184 192 234 228 47 62 58 61 58 59 56 56 53 67 75 73 73 73 69 66 64 64 70 74 79 80 87 100 111 143 162 180 185 186 194 165 171 179 185 186 194
199 186 175 203 234 209 186 100 51 55 56 56 56 55 59 64 65 61 67 69 63 64 67 65 69 70 70 71 72 81 83 95 118 151 161 172 169 169 192 199 203 186 164
198 207 205 212 236 225 255 112 77 275 358 63 60 70 66 58 63 57 54 62 64 66 67 69 71 72 70 69 73 74 78 74 93 120 137 162 173 188 206 198 192 179 222
208 218 213 220 238 244 261 133 269 315 298 219 163 142 127 74 66 61 58 48 48 57 57 69 62 64 68 65 65 70 84 96 97 114 145 164 181 187 194 183 184 191 151
208 217 219 221 230 237 230 229 222 230 260 246 207 182 179 136 84 76 61 45 35 43 50 63 57 62 65 60 54 62 72 83 85 92 103 126 147 168 168 169 168 167 152
227 232 225 230 232 231 231 217 220 218 250 293 218 189 183 196 177 104 47 34 27 59 62 57 60 62 59 59 53 50 74 86 86 87 90 85 76 84 219 195 183 191 180
230 237 249 257 245 224 216 212 222 199 247 252 258 202 198 208 221 228 235 35 48 72 43 50 47 19 34 39 42 59 104 112 105 100 94 71 36 18 328 251 269 279 213
237 246 258 248 226 192 191 220 190 256 220 257 240 251 219 216 226 239 245 254 16 36 25 17 322 280 284 313 350 19 157 159 149 167 288 50 15 357 356 264 250 242 233
244 239 228 216 190 169 188 204 222 235 226 235 255 252 227 225 222 227 232 242 241 287 316 327 311 307 300 223 219 209 230 262 272 253 213 206 358 357 53 68 87 89 143
222 209 196 181 167 170 188 207 212 227 228 222 228 242 230 223 218 226 220 222 245 269 288 269 111 95 121 130 122 267 319 3 43 163 135 27 358 6 359 6 50 69 62
189 179 168 161 157 164 180 193 221 207 221 222 245 245 250 236 228 214 204 207 216 214 201 140 117 106 101 95 63 41 2 323 109 155 303 313 309 321 350 339 298 308 295
159 153 144 141 140 158 169 186 199 216 226 239 247 240 221 209 194 181 178 178 181 152 142 135 140 131 98 90 47 36 19 0 319 305 308 302 296 293 292 304 304 300 267
142 130 124 123 125 128 136 154 166 181 197 217 217 206 198 210 203 195 196 182 163 154 149 167 197 128 16 28 350 336 312 303 308 311 317 320 302 292 286 283 282 287 289
131 124 117 115 109 103 98 94 88 99 115 113 115 121 173 220 190 194 189 158 166 181 142 122 125 112 331 331 327 320 317 305 300 306 314 299 303 302 288 282 263 272 295
127 122 118 114 112 108 93 83 80 73 94 76 81 74 100 103 108 128 149 145 131 137 139 143 163 337 344 349 359 354 343 327 312 304 293 291 303 304 293 279 288 292 309
142 134 130 124 118 115 95 88 90 82 82 79 70 65 80 89 95 112 147 157 123 91 169 226 293 346 335 334 345 351 344 343 351 322 292 297 285 269 277 313 302 306 291
146 143 130 137 138 122 111 96 97 91 85 85 76 69 73 81 99 102 107 140 177 210 256 331 334 325 324 329 336 334 325 321 340 340 315 298 324 271 293 287 315 294 293
156 151 152 157 163 143 82 99 160 216 69 57 87 93 75 66 97 125 162 200 208 220 260 287 330 340 349 353 332 317 314 320 335 337 329 294 307 289 286 294 289 292 305
161 158 152 151 145 159 187 216 275 268 266 285 289 243 197 119 76 249 264 275 270 255 251 267 295 323 337 334 337 343 335 332 327 327 332 305 295 309 290 281 291 290 289
166 173 158 157 171 176 167 211 219 52 103 126 205 245 234 196 204 267 312 310 287 285 279 285 304 296 305 294 298 308 309 310 316 313 312 308 308 309 299 292 291 291 290
172 175 173 164 172 167 174 185 217 269 334 304 230 156 171 236 251 253 254 258 266 251 225 257 267 257 277 274 278 284 286 290 291 295 295 292 289 294 297 297 296 297 301
165 166 172 184 197 202 191 171 165 160 140 357 173 178 185 257 239 250 266 271 247 250 263 271 253 260 273 271 284 290 294 293 286 286 296 284 285 280 276 281 293 294 300
171 183 204 213 205 194 178 154 162 250 306 340 242 186 165 180 201 221 252 248 253 259 255 258 267 276 282 286 286 289 288 287 286 285 283 282 280 282 273 269 277 275 274
Height
1548 1547 1551 1550 1550 1549 1546 1543 1541 1539 1537 1536 1535 1532 1531 1531 1530 1529 1527 1527 1526 1526 1526 1527 1527 1527 1527 1528 1529 1532 1533 1534 1535 1536 1538 1538 1539 1539 1539 1538 1538 1537 1536
1547 1547 1548 1550 1550 1548 1547 1544 1542 1541 1539 1538 1537 1535 1534 1533 1532 1531 1529 1529 1528 1527 1527 1528 1528 1528 1528 1528 1528 1529 1530 1531 1532 1533 1536 1536 1538 1538 1537 1537 1537 1537 1536
1545 1547 1548 1550 1550 1549 1547 1545 1543 1542 1541 1541 1539 1537 1536 1536 1535 1533 1532 1531 1531 1530 1530 1529 1529 1529 1529 1528 1528 1528 1529 1529 1529 1530 1532 1535 1535 1536 1536 1536 1536 1536 1536
1544 1546 1547 1549 1549 1548 1548 1546 1545 1544 1543 1544 1542 1540 1539 1538 1537 1537 1536 1534 1533 1532 1531 1531 1530 1530 1530 1529 1528 1528 1529 1529 1529 1530 1532 1534 1535 1535 1536 1536 1536 1536 1536
1545 1544 1546 1547 1547 1547 1548 1546 1546 1545 1545 1545 1543 1542 1541 1541 1539 1539 1538 1536 1535 1534 1533 1533 1532 1532 1532 1531 1531 1530 1531 1531 1531 1531 1532 1533 1534 1535 1536 1537 1537 1537 1537
1545 1544 1544 1546 1545 1545 1546 1546 1545 1546 1546 1546 1544 1544 1543 1542 1541 1540 1539 1538 1537 1537 1536 1535 1534 1534 1534 1534 1534 1534 1534 1533 1533 1533 1534 1535 1536 1536 1536 1536 1537 1537 1537
1544 1545 1544 1543 1542 1543 1543 1545 1545 1545 1546 1546 1546 1545 1545 1544 1543 1542 1541 1540 1539 1539 1538 1538 1538 1537 1537 1537 1537 1537 1536 1536 1536 1535 1536 1536 1536 1536 1537 1536 1537 1537 1537
1540 1542 1541 1542 1540 1539 1541 1543 1543 1544 1545 1546 1545 1545 1545 1544 1544 1543 1542 1542 1541 1541 1540 1540 1540 1540 1540 1540 1540 1539 1539 1538 1537 1537 1537 1537 1537 1538 1537 1537 1537 1538 1538
1539 1539 1539 1539 1539 1538 1538 1541 1542 1543 1545 1545 1545 1545 1545 1545 1545 1545 1544 1544 1543 1543 1542 1542 1542 1542 1542 1542 1542 1541 1540 1539 1539 1538 1538 1539 1540 1540 1540 1539 1539 1539 1539
1534 1533 1534 1534 1535 1536 1537 1539 1540 1541 1544 1544 1544 1545 1545 1545 1545 1545 1545 1545 1545 1544 1544 1543 1543 1543 1543 1543 1543 1543 1542 1541 1540 1540 1540 1541 1541 1540 1539 1539 1539 1538 1539
1531 1530 1531 1531 1531 1533 1535 1537 1537 1541 1542 1542 1543 1544 1544 1544 1544 1545 1545 1545 1545 1545 1545 1544 1544 1543 1543 1543 1542 1542 1543 1542 1542 1541 1541 1542 1541 1540 1539 1538 1538 1537 1538
1527 1528 1529 1529 1530 1532 1535 1536 1538 1539 1540 1542 1543 1542 1542 1542 1543 1544 1543 1544 1544 1544 1545 1544 1543 1543 1543 1543 1542 1542 1542 1542 1541 1541 1541 1542 1542 1541 1540 1539 1538 1538 1537
1526 1527 1528 1528 1529 1531 1535 1536 1537 1537 1539 1540 1541 1541 1541 1540 1541 1542 1542 1542 1543 1543 1544 1543 1543 1543 1543 1543 1543 1543 1542 1541 1541 1541 1542 1542 1542 1541 1541 1540 1539 1539 1538
1524 1526 1527 1527 1529 1531 1534 1535 1536 1537 1538 1539 1540 1540 1540 1540 1540 1540 1540 1541 1542 1542 1543 1543 1543 1544 1544 1544 1543 1543 1542 1542 1542 1542 1542 1541 1541 1540 1540 1539 1539 1538 1537
1524 1526 1527 1528 1529 1531 1533 1534 1535 1536 1537 1538 1539 1538 1538 1539 1539 1540 1541 1541 1541 1542 1543 1544 1544 1544 1544 1544 1543 1543 1542 1542 1542 1541 1541 1540 1540 1539 1539 1538 1537 1536 1535
1525 1526 1528 1529 1531 1533 1534 1534 1535 1536 1537 1537 1538 1538 1538 1538 1539 1539 1540 1540 1541 1542 1543 1543 1544 1544 1544 1544 1543 1543 1542 1541 1541 1540 1539 1538 1537 1537 1536 1536 1536 1535 1534
1527 1528 1530 1532 1534 1535 1536 1536 1536 1536 1536 1537 1537 1538 1538 1539 1539 1539 1540 1540 1541 1543 1543 1543 1544 1545 1544 1544 1543 1542 1541 1540 1539 1538 1537 1536 1535 1535 1534 1533 1533 1532 1531
1530 1531 1532 1533 1535 1537 1538 1538 1538 1538 1538 1538 1538 1538 1537 1538 1539 1540 1540 1540 1541 1542 1543 1544 1545 1545 1545 1543 1542 1541 1539 1538 1537 1535 1534 1534 1533 1532 1531 1531 1531 1530 1529
1531 1533 1535 1536 1537 1538 1538 1539 1540 1540 1540 1540 1540 1539 1539 1539 1540 1540 1540 1542 1543 1543 1544 1544 1545 1544 1544 1542 1541 1540 1539 1537 1535 1533 1532 1532 1530 1529 1529 1529 1528 1528 1526
1531 1533 1535 1536 1538 1539 1540 1540 1541 1541 1541 1542 1541 1541 1541 1541 1541 1541 1541 1542 1543 1543 1543 1543 1543 1542 1542 1541 1540 1538 1537 1536 1534 1532 1531 1530 1528 1527 1527 1527 1526 1525 1524
1532 1533 1535 1537 1539 1540 1541 1542 1542 1542 1542 1542 1542 1542 1542 1542 1541 1542 1541 1542 1542 1542 1542 1541 1541 1540 1540 1539 1538 1536 1534 1533 1532 1530 1528 1527 1527 1526 1525 1525 1523 1523 1521
1533 1534 1534 1535 1538 1540 1540 1541 1542 1541 1542 1541 1542 1542 1542 1542 1541 1541 1541 1541 1541 1541 1541 1540 1540 1539 1538 1537 1536 1534 1532 1531 1529 1528 1526 1525 1524 1523 1521 1521 1520 1519 1517
1532 1534 1535 1535 1537 1540 1540 1540 1541 1540 1539 1539 1538 1539 1539 1540 1540 1540 1540 1541 1540 1539 1538 1538 1539 1537 1536 1534 1533 1531 1529 1528 1526 1525 1524 1522 1521 1519 1518 1517 1516 1514 1513
1532 1533 1534 1535 1536 1537 1538 1539 1540 1539 1537 1537 1537 1538 1539 1538 1538 1538 1537 1537 1536 1535 1535 1535 1534 1533 1532 1531 1529 1527 1526 1524 1522 1520 1519 1517 1516 1515 1513 1512 1510 1509 1507
1530 1532 1533 1534 1534 1536 1537 1538 1537 1536 1535 1536 1536 1536 1535 1535 1535 1535 1535 1534 1533 1532 1531 1530 1529 1528 1527 1526 1524 1523 1521 1519 1517 1515 1513 1511 1509 1508 1506 1505 1504 1503 1501
1531 1532 1533 1534 1535 1535 1536 1536 1534 1535 1535 1536 1535 1535 1534 1534 1533 1533 1532 1531 1531 1530 1529 1527 1526 1525 1523 1521 1519 1517 1515 1512 1510 1507 1505 1502 1500 1498 1497 1496 1496 1494 1492